User: anonymous   Login
Location: El Centro
(32.7920°N, 115.5620°W)
Time: 08:56:05
(UTC-07:00)
Language:

Hamsat - Orbit

View from above orbital plane
View from above orbital plane
View from above satellite
View from above satellite

Ground track
Ground track

The orbit data is extracted from the following two-line orbital elements,

1 28650U 05017B   17178.90950219 +.00000230 +00000-0 +30259-4 0  9991
2 28650 097.6514 152.8834 0025150 094.8064 265.6026 14.88678494657699
Epoch (UTC): 27 June 2017 21:49:40
Eccentricity: 0.0025150
inclination: 97.6514°
perigee height: 584 km
apogee height: 619 km
right ascension of ascending node: 152.8834°
argument of perigee: 94.8064°
revolutions per day: 14.88678494
mean anomaly at epoch: 265.6026°
orbit number at epoch: 65769

The dashed part of the orbit path shows where the satellite is in the earth's shadow,  

DLR